weather.gov     
National Weather Service

Regional Weather Roundup
NWS Homepage
This page is being discontinued on March 12, 2014.
The same data is available at this site. Please update your bookmarks.
Thank you, and we apologize for the inconvenience.
Please send an email to SR-SRH.Webmaster@noaa.gov with any concerns.


Current Version
Previous Version:    01  02  03  04  05  06  07  08  09  10  11  12  13  14  15  16  17  18  19  20  21  22  23  24  25  26  27  28  29  30  
   31  32  33  34  35  36  37  38  39  40  41  42  43  44  45  46  47  48  49  50  51  52  53  
[Printable]
074
ASUS44 KJAN 220410
RWRMS

MISSISSIPPI HOURLY WEATHER ROUNDUP
NATIONAL WEATHER SERVICE JACKSON MS
1100 PM CDT TUE OCT 21 2014

NOTE: "FAIR: INDICATES FEW OR NO CLOUDS BELOW 12,000 FEET WITH NO
SIGNIFICANT WEATHER AND/OR OBSTRUCTIONS TO VISIBILITY.

MSZ001>002-007>008-010>013-018>021-025>028-034>036-220500-
NORTHWEST MISSISSIPPI

CITY           SKY/WX    TMP DP  RH WIND       PRES   REMARKS
CLARKSDALE     FAIR      55  52  88 CALM      30.10F
CLEVELAND      FAIR      59  51  76 NE3       30.08S HAZE
GREENWOOD      CLEAR     57  53  86 N3        30.09R
GREENVILLE     CLEAR     62  52  69 NE3       30.09R
GRENADA          N/A    N/A N/A N/A MISG        N/A
OLIVE BRANCH   CLEAR     54  52  94 N5        30.11S
OXFORD         FAIR      48  48 100 CALM      30.11S
TUNICA         CLEAR     54  50  87 CALM      30.11S
$$

MSZ003>006-009-014>017-022>024-029>033-037>039-220500-
NORTHEAST MISSISSIPPI

CITY           SKY/WX    TMP DP  RH WIND       PRES   REMARKS
COLUMBUS AFB   CLEAR     51  50  95 NW2       30.07R
CORINTH        FAIR      55  48  76 NE9       30.10R
GOLDN TRIANGLE CLEAR     55  46  71 N3        30.07S
STARKVILLE     FAIR      52  50  93 CALM      30.08R
TUPELO         CLEAR     54  49  83 N3        30.09R
$$

MSZ040-058-220500-
CENTRAL MISSISSIPPI

CITY           SKY/WX    TMP DP  RH WIND       PRES   REMARKS
JACKSON INTL   CLEAR     57  55  93 CALM      30.07R
JACKSON HAWKNS CLEAR     60  56  86 CALM      30.07R
MERIDIAN KEY   CLEAR     55  53  93 CALM      30.07R
MERIDIAN NAS   CLEAR     58  54  86 NW5       30.07R
RAYMOND        HAZE      55  50  82 MISG      30.07R VSB<1/4
VICKSBURG      CLEAR     55  54  96 CALM      30.07R
$$

MSZ059>079-220500-
SOUTH MISSISSIPPI

CITY           SKY/WX    TMP DP  RH WIND       PRES   REMARKS
BROOKHAVEN     FAIR      57  57 100 CALM      30.09R
HATTIESBURG    CLEAR     58  56  93 CALM      30.06S
MCCOMB         CLEAR     65  57  75 N5        30.06S
NATCHEZ        CLEAR     57  55  94 S3        30.08R
PINE BELT      CLEAR     55  52  88 CALM      30.07S
$$

MSZ080>082-220500-
COASTAL MISSISSIPPI

CITY           SKY/WX    TMP DP  RH WIND       PRES   REMARKS
BILOXI         CLEAR     64  57  77 NE5       30.03R HAZE
PASCAGOULA     CLEAR     53  52  96 CALM      30.03S
GULFPORT       CLEAR     62  58  86 CALM      30.02S
$$




U.S. Dept. of Commerce
NOAA National Weather Service
1325 East West Highway
Silver Spring, MD 20910
E-mail: w-nws.webmaster@noaa.gov
Page last modified: May 16, 2007
NATIONAL WEATHER SERVICE: for Safety, for Work, for Fun - FOR LIFE